RH
62 60 62 59 58 58 58 61 62 66 64 60 60 61 60 60 60 62 62 61 59 59 58 56 58 53 49 49 51 48 46 41 38 50 47 53 58 60 59 58 53 52 51
61 60 63 64 58 58 58 60 66 62 63 60 59 57 57 58 60 61 57 58 55 52 55 53 54 47 58 58 52 56 54 53 43 49 53 51 60 64 67 61 51 44 46
61 62 66 65 59 58 59 60 62 62 62 60 58 58 58 61 59 60 59 59 52 50 51 50 54 55 58 57 57 57 55 49 51 46 51 53 56 67 63 57 56 57 42
64 63 67 65 60 58 58 60 62 60 61 60 59 57 60 59 56 55 56 57 52 52 58 53 50 50 55 59 56 60 58 53 53 48 50 53 58 68 63 61 60 55 55
67 64 68 64 60 59 61 61 62 62 59 57 60 59 58 56 51 58 56 55 55 59 64 53 58 58 67 66 51 60 60 52 47 47 52 57 63 68 74 66 75 61 58
70 68 65 65 61 62 62 63 66 64 62 63 58 58 62 45 83 81 64 56 53 56 61 60 57 71 77 80 81 81 67 53 54 49 56 60 64 66 69 68 83 83 78
69 66 66 64 63 64 60 60 62 65 67 67 63 59 59 55 85 85 81 54 56 58 58 61 48 53 71 61 79 79 77 77 73 57 60 64 66 65 71 74 74 79 78
66 65 66 66 62 64 61 61 65 64 66 64 64 61 58 54 86 86 84 57 58 62 61 62 55 61 66 64 56 57 58 58 59 51 58 60 62 62 66 74 76 71 65
68 66 64 64 63 65 66 68 66 67 67 64 59 62 60 56 87 87 72 57 56 62 60 61 59 57 79 78 60 58 56 58 67 75 72 78 81 81 76 69 84 84 84
68 65 62 60 61 64 64 69 69 65 62 56 57 61 64 57 88 87 66 48 57 56 58 61 80 61 86 86 54 54 58 70 60 59 57 61 66 67 78 70 77 86 88
69 67 64 62 63 63 67 67 67 64 61 64 60 61 60 56 66 86 79 49 48 55 54 59 56 83 83 88 73 53 61 66 87 69 70 70 65 65 72 75 71 76 92
71 72 69 68 60 60 67 66 64 64 66 66 64 63 60 58 72 88 83 70 69 52 55 55 59 86 83 88 78 77 84 84 76 79 78 80 76 74 76 78 73 72 80
73 74 72 67 63 64 66 68 68 65 67 67 65 67 67 62 60 84 86 82 85 58 53 65 80 85 84 86 81 86 91 73 77 83 86 84 76 73 64 76 71 58 57
72 71 69 69 68 66 60 62 67 73 72 66 68 71 70 69 68 64 66 71 88 70 84 71 78 78 78 77 76 77 71 72 72 73 73 72 68 73 71 72 71 68 68
70 68 69 67 69 70 64 68 65 66 64 68 67 66 78 82 75 75 66 58 60 56 72 70 73 72 70 71 69 71 74 73 75 73 75 73 69 66 66 72 74 70 68
69 67 69 72 72 69 70 79 94 82 85 83 81 71 65 71 85 84 82 75 77 90 64 70 75 77 74 73 72 76 76 80 74 71 70 68 69 68 68 72 77 74 74
68 69 70 75 73 76 76 80 88 89 91 88 85 85 82 77 87 87 84 82 84 84 63 68 77 81 78 70 71 72 77 75 69 72 71 72 71 69 75 73 78 76 76
67 94 67 69 71 80 71 75 70 82 86 86 91 80 89 87 88 88 87 85 83 74 61 66 68 69 68 68 67 68 71 72 75 74 75 76 81 77 78 78 78 84 78
70 70 69 76 78 79 72 73 74 78 78 79 83 92 88 89 89 91 90 74 79 76 66 66 64 65 69 67 70 73 75 77 76 86 78 90 100 78 80 76 78 83 82
70 84 84 76 80 78 76 77 79 80 79 79 81 78 79 85 90 98 88 84 80 75 73 70 68 68 72 76 77 84 86 85 80 88 97 100 100 83 82 82 80 86 85
89 87 88 77 78 77 79 79 79 80 80 79 79 80 87 81 83 85 86 85 83 80 79 75 77 76 78 79 76 79 78 81 80 82 86 87 100 97 79 77 77 77 76
91 96 96 95 93 90 84 79 82 82 81 81 78 91 93 82 81 82 82 86 86 80 77 81 82 80 79 80 80 94 88 98 96 92 96 95 91 88 81 78 78 78 73
90 90 87 88 86 94 89 82 86 88 84 81 79 84 87 86 84 83 85 93 87 86 83 82 86 86 82 84 82 84 90 90 88 91 98 98 91 86 88 82 76 79 76
94 96 90 87 90 91 91 90 88 92 85 86 91 86 84 86 100 99 99 100 96 100 98 96 86 82 82 96 94 84 79 82 82 86 91 95 88 85 87 78 75 73 74
98 95 96 98 99 100 100 98 96 96 95 98 100 96 90 91 97 100 100 100 100 100 100 100 93 89 98 100 90 85 82 87 90 83 88 83 92 92 83 79 78 70 75
98 96 98 98 97 99 100 100 100 100 100 100 100 100 100 99 97 100 100 100 100 100 100 99 95 100 100 96 93 90 88 87 91 85 84 78 85 87 82 76 74 74 70
Wind_Speed
14 14 13 12 11 11 10 10 11 11 11 10 9 9 9 10 8 9 9 9 9 9 8 8 8 6 5 5 5 5 4 4 4 3 2 4 4 6 6 5 5 6 6
16 15 14 13 12 12 11 11 11 12 11 11 10 9 9 10 9 9 10 9 9 9 8 8 8 5 7 6 5 6 6 6 2 4 3 3 5 6 6 6 5 5 7
17 16 14 14 13 13 12 12 12 12 12 11 11 10 10 10 10 8 9 9 9 8 8 7 7 6 6 5 5 5 5 4 4 2 3 2 3 5 5 5 5 5 6
17 16 15 15 14 13 13 13 13 12 13 12 11 11 10 10 10 10 9 9 9 8 7 7 6 5 5 5 5 5 4 3 3 3 3 3 3 3 4 5 5 3 4
18 18 16 15 14 14 13 13 13 13 12 12 11 11 10 10 8 11 10 10 10 9 7 7 6 5 5 4 2 4 4 2 2 2 3 2 4 3 5 5 5 5 2
19 18 17 16 15 15 14 14 13 13 12 12 12 12 11 8 11 10 11 10 10 10 9 7 7 7 6 6 6 5 4 2 3 2 3 3 4 4 4 4 4 4 3
18 17 17 17 17 16 15 15 15 15 13 13 12 12 12 10 14 13 11 10 10 9 9 9 7 5 7 7 8 8 7 5 5 3 4 4 3 4 4 5 5 4 3
17 17 17 17 17 16 16 16 15 14 14 13 12 12 11 10 14 14 12 10 9 9 9 9 8 9 7 7 6 6 5 4 3 2 3 3 2 2 3 2 4 6 1
18 18 18 18 18 17 17 16 15 13 12 12 12 13 13 11 14 15 14 10 9 9 9 9 9 8 11 9 7 6 5 5 3 2 4 4 5 3 4 2 2 4 2
19 18 19 19 19 19 17 16 14 13 13 11 12 13 12 13 13 16 14 8 10 8 8 8 8 8 14 12 6 6 6 4 5 3 2 2 3 3 1 1 1 3 2
15 16 16 17 17 16 15 14 15 14 13 13 13 12 13 12 13 16 15 10 9 8 8 8 8 11 13 13 8 6 4 6 4 3 1 1 1 1 1 1 2 1 0
16 16 15 16 13 13 17 15 15 15 15 14 13 11 10 11 11 16 17 11 10 9 9 7 7 14 13 13 9 7 8 5 4 3 3 2 1 1 1 1 2 3 4
18 17 16 15 14 15 16 16 13 15 12 12 11 11 11 10 9 13 17 14 12 8 6 7 10 15 13 10 9 10 7 5 5 4 4 3 3 2 2 2 4 5 5
18 18 16 16 15 15 12 12 12 12 11 11 11 11 10 10 10 10 10 10 7 7 5 6 7 8 8 6 7 8 7 6 5 5 4 4 3 3 3 3 4 3 3
15 14 15 13 15 14 13 12 12 14 14 14 12 11 11 11 11 11 12 11 10 9 8 7 7 8 9 8 8 8 8 7 7 6 5 5 4 4 4 3 4 4 4
14 12 11 10 11 11 11 9 6 6 10 9 11 12 10 8 18 20 18 15 15 16 8 9 9 10 10 10 10 9 9 9 8 7 7 6 5 5 4 4 4 5 4
13 13 10 10 10 11 11 11 10 3 6 10 12 14 13 15 19 21 21 19 20 15 9 10 9 9 10 10 10 9 9 9 9 8 8 7 6 6 5 5 5 5 5
12 8 11 11 11 10 11 10 10 10 10 10 8 13 12 14 18 20 19 16 9 11 11 10 11 10 10 10 10 10 9 8 9 9 9 8 7 7 6 6 6 6 5
10 9 8 7 8 8 9 9 9 9 9 8 8 6 9 12 13 14 24 11 11 11 12 11 10 10 10 10 9 9 9 9 10 8 9 8 7 8 7 7 6 7 6
7 9 6 8 8 8 8 8 8 9 9 9 9 10 10 8 8 9 11 9 9 9 11 11 10 9 9 9 9 8 8 9 9 10 8 8 8 9 8 8 8 7 7
4 7 7 7 7 9 9 10 9 9 9 9 9 9 14 12 11 11 11 11 10 10 11 11 10 10 9 9 9 9 10 9 10 10 9 10 9 9 9 8 8 9 8
2 4 6 4 4 5 8 8 8 8 8 8 8 7 11 9 8 10 10 11 11 11 9 10 10 10 10 11 11 10 10 10 10 10 10 9 10 10 10 10 9 9 9
6 2 4 4 6 5 6 8 7 6 7 7 7 6 9 10 9 10 10 10 10 10 10 10 10 9 9 9 10 11 11 12 12 11 11 10 10 10 10 10 10 10 10
9 9 4 1 3 3 4 6 6 6 7 7 7 7 8 8 8 8 7 5 7 7 7 8 9 12 10 10 9 10 10 9 9 12 15 12 12 12 11 11 11 12 10
9 8 8 6 3 1 1 1 3 4 5 5 5 5 6 6 7 8 7 7 7 7 9 9 9 12 13 13 13 15 14 12 14 13 11 13 14 15 13 11 12 11 13
6 7 8 7 8 8 5 2 1 1 2 2 3 3 4 5 5 4 5 6 6 7 8 8 11 15 15 14 17 17 16 16 16 17 12 11 11 11 11 14 17 11 13
Wind_Direction
172 167 165 168 167 157 158 158 152 145 145 146 142 144 137 130 130 125 123 125 115 110 105 100 93 96 91 81 75 67 69 49 87 114 44 50 44 20 22 28 23 29 52
171 169 172 165 163 161 163 162 157 152 155 152 153 154 144 138 142 140 139 134 127 120 116 114 108 105 94 87 82 75 68 52 73 94 71 72 44 30 19 9 21 26 19
175 169 169 167 165 170 166 163 164 157 157 159 158 162 157 150 150 151 143 135 129 126 128 125 120 119 114 108 92 86 80 73 67 84 103 74 57 24 9 13 20 27 34
173 173 175 169 171 171 166 167 166 166 162 167 166 165 164 160 155 153 148 140 132 128 126 119 120 122 128 122 103 98 104 92 89 89 84 77 38 18 8 1 17 18 27
173 177 177 169 170 167 168 170 167 170 171 171 165 167 167 164 159 160 157 151 142 136 130 126 116 105 99 86 121 121 136 116 93 81 80 76 60 24 16 348 18 339 86
176 177 170 167 168 171 170 170 170 172 171 171 174 172 169 175 148 156 161 161 155 152 149 143 131 130 119 130 110 76 43 101 94 62 71 52 52 34 6 5 19 1 5
173 169 170 166 171 174 171 171 176 176 170 178 176 176 176 176 160 159 165 166 164 165 163 159 152 134 139 130 111 115 107 88 34 55 66 55 40 23 4 359 20 2 338
172 170 168 169 173 171 172 177 176 176 177 180 179 183 177 179 166 164 171 169 168 172 177 173 165 164 160 156 147 137 142 148 123 108 63 67 44 17 359 354 0 349 53
175 173 173 171 172 171 175 176 175 173 179 184 183 183 183 182 173 165 173 177 173 175 180 179 175 173 162 172 161 163 170 155 144 91 66 101 133 88 359 353 14 11 22
179 175 172 174 173 175 174 173 173 178 180 182 186 191 186 185 174 169 182 182 177 174 178 182 192 186 168 180 183 180 186 177 168 160 139 159 184 117 147 333 34 15 8
170 170 175 178 174 169 166 169 171 177 180 187 189 190 191 192 179 179 184 188 185 180 183 186 190 183 177 179 205 194 178 173 173 177 196 334 328 353 12 287 251 331 124
163 168 171 175 172 166 166 172 175 177 183 186 189 190 196 192 185 188 186 200 183 186 191 192 186 175 179 175 182 161 157 168 174 192 208 237 283 294 341 277 221 237 226
169 171 171 172 173 168 169 170 173 183 183 185 191 193 193 190 191 184 187 185 178 196 198 185 155 174 173 174 185 176 173 195 190 201 210 214 234 238 279 237 239 238 233
174 176 171 172 171 172 175 173 176 179 183 187 192 194 191 189 193 188 197 194 176 206 150 157 168 175 183 180 176 190 206 206 205 212 211 209 215 213 233 222 237 228 244
176 172 175 177 174 175 181 180 183 191 188 186 193 189 184 196 196 175 180 188 188 186 163 155 172 185 191 198 202 205 208 210 210 211 211 212 220 219 223 213 247 243 251
176 177 176 170 177 177 176 174 46 202 183 179 164 185 195 189 155 172 183 180 168 150 175 187 194 197 202 202 205 206 211 212 215 209 211 212 218 221 219 211 236 237 248
177 175 170 175 179 177 177 180 178 111 163 175 178 183 182 176 172 180 184 177 164 160 203 202 201 198 202 206 207 208 209 211 208 209 209 210 215 220 201 216 227 240 238
179 180 176 179 179 181 183 186 187 182 183 189 195 192 189 176 180 185 178 153 167 214 207 210 209 205 206 208 209 210 211 206 208 208 209 209 207 211 215 218 224 237 246
172 165 179 182 178 179 184 186 184 188 193 184 176 187 183 182 188 169 162 187 194 200 208 214 213 211 206 207 209 206 203 205 205 202 205 202 193 206 215 219 220 229 234
169 137 160 178 158 178 182 186 190 189 194 193 193 192 169 154 180 183 194 204 201 203 205 212 211 209 208 203 201 199 201 204 203 203 201 195 191 204 212 213 216 219 220
144 139 154 189 181 190 183 191 195 194 196 200 202 183 178 186 190 191 193 204 207 207 206 209 209 209 206 204 203 201 203 203 204 202 200 199 186 201 208 213 218 217 224
185 180 166 181 160 199 218 188 187 191 199 202 200 179 170 198 194 198 202 205 210 213 211 209 210 208 204 201 201 199 202 200 199 195 196 193 193 199 202 208 214 220 223
5 124 174 170 189 193 200 194 186 193 201 209 200 176 183 199 204 204 209 208 206 212 210 208 210 212 210 209 204 200 200 202 199 189 191 190 194 198 198 203 207 214 218
11 19 23 115 180 194 204 219 207 191 189 194 189 189 199 207 207 217 221 200 213 211 212 214 216 214 212 207 206 208 210 208 194 194 187 190 195 191 193 199 205 214 217
9 10 40 10 14 66 141 223 247 211 184 181 189 190 191 198 204 211 209 202 203 202 210 208 218 221 212 208 212 211 210 195 192 189 190 196 198 194 196 197 197 207 212
8 5 20 24 21 15 8 5 325 246 191 188 186 176 189 203 212 204 212 208 206 217 220 218 219 218 216 215 216 212 206 200 198 193 189 195 194 195 195 201 202 202 207